| time (UTC) | temp F | wind direction | speed MPH | gust MPH | rain 1hr in | rain 24hr in | rain mn in | humidity % | barometer mb |
| 20260504192745 | 59 | 185 | 7.0 | 21.0 | 0.00 | 0.00 | 0.00 | 73 | 1011.0 |
| 20260504192243 | 59 | 185 | 12.0 | 18.0 | 0.00 | 0.00 | 0.00 | 73 | 1011.3 |
| 20260504191741 | 59 | 199 | 15.0 | 18.0 | 0.00 | 0.00 | 0.00 | 72 | 1011.2 |
| 20260504191238 | 59 | 178 | 10.0 | 18.0 | 0.00 | 0.00 | 0.00 | 72 | 1011.1 |
| 20260504190733 | 59 | 197 | 9.0 | 22.0 | 0.00 | 0.00 | 0.00 | 71 | 1011.4 |
| 20260504190230 | 60 | 188 | 13.0 | 17.0 | 0.00 | 0.00 | 0.00 | 70 | 1011.5 |
| 20260504185726 | 61 | 184 | 11.0 | 15.0 | 0.00 | 0.00 | 0.00 | 69 | 1011.5 |
| 20260504185223 | 61 | 201 | 9.0 | 22.0 | 0.00 | 0.00 | 0.00 | 68 | 1011.5 |
| 20260504184719 | 61 | 178 | 10.0 | 17.0 | 0.00 | 0.00 | 0.00 | 68 | 1011.5 |
| 20260504184215 | 61 | 192 | 7.0 | 17.0 | 0.00 | 0.00 | 0.00 | 68 | 1011.6 |
| 20260504183711 | 62 | 191 | 7.0 | 14.0 | 0.00 | 0.00 | 0.00 | 67 | 1011.5 |
| 20260504183208 | 60 | 212 | 20.0 | 21.0 | 0.00 | 0.00 | 0.00 | 69 | 1011.6 |
| 20260504182707 | 60 | 216 | 11.0 | 24.0 | 0.00 | 0.00 | 0.00 | 70 | 1011.7 |
| 20260504182203 | 60 | 194 | 15.0 | 19.0 | 0.00 | 0.00 | 0.00 | 69 | 1011.7 |
| 20260504181701 | 60 | 197 | 11.0 | 20.0 | 0.00 | 0.00 | 0.00 | 70 | 1011.8 |
| 20260504181158 | 60 | 174 | 7.0 | 15.0 | 0.00 | 0.00 | 0.00 | 70 | 1011.9 |
| 20260504180657 | 60 | 205 | 13.0 | 19.0 | 0.00 | 0.00 | 0.00 | 69 | 1012.0 |
| 20260504180155 | 60 | 209 | 15.0 | 19.0 | 0.00 | 0.00 | 0.00 | 68 | 1012.1 |
| 20260504175652 | 60 | 204 | 11.0 | 22.0 | 0.00 | 0.00 | 0.00 | 69 | 1011.9 |
| 20260504175149 | 61 | 200 | 13.0 | 18.0 | 0.00 | 0.00 | 0.00 | 68 | 1012.0 |
| 20260504174647 | 60 | 214 | 15.0 | 18.0 | 0.00 | 0.00 | 0.00 | 69 | 1012.1 |
| 20260504174144 | 60 | 191 | 5.0 | 20.0 | 0.00 | 0.00 | 0.00 | 71 | 1012.0 |
| 20260504173641 | 60 | 212 | 12.0 | 22.0 | 0.00 | 0.00 | 0.00 | 70 | 1012.1 |
| 20260504173138 | 60 | 195 | 7.0 | 18.0 | 0.00 | 0.00 | 0.00 | 71 | 1012.1 |
| 20260504172635 | 60 | 211 | 12.0 | 21.0 | 0.00 | 0.00 | 0.00 | 70 | 1012.1 |
| 20260504172131 | 60 | 181 | 10.0 | 14.0 | 0.00 | 0.00 | 0.00 | 70 | 1012.3 |
| 20260504171628 | 60 | 208 | 14.0 | 14.0 | 0.00 | 0.00 | 0.00 | 69 | 1012.4 |
| 20260504171125 | 60 | 186 | 10.0 | 17.0 | 0.00 | 0.00 | 0.00 | 71 | 1012.3 |
| 20260504170621 | 59 | 201 | 7.0 | 18.0 | 0.00 | 0.00 | 0.00 | 71 | 1012.6 |
| 20260504170119 | 60 | 199 | 11.0 | 18.0 | 0.00 | 0.00 | 0.00 | 70 | 1012.5 |
| 20260504151004 | 60 | 217 | 4.0 | 16.0 | 0.00 | 0.00 | 0.00 | 64 | 1013.9 |
| 20260504150502 | 60 | 208 | 3.0 | 10.0 | 0.00 | 0.00 | 0.00 | 62 | 1013.9 |
| 20260504140927 | 58 | 211 | 3.0 | 13.0 | 0.00 | 0.00 | 0.00 | 66 | 1014.1 |
| 20260504140424 | 59 | 210 | 11.0 | 14.0 | 0.00 | 0.00 | 0.00 | 64 | 1013.9 |
| 20260504130349 | 57 | 211 | 9.0 | 13.0 | 0.00 | 0.00 | 0.00 | 63 | 1014.4 |
| 20260504120312 | 54 | 235 | 13.0 | 13.0 | 0.00 | 0.00 | 0.00 | 66 | 1014.8 |
| 20260504110236 | 52 | 242 | 5.0 | 10.0 | 0.00 | 0.00 | 0.00 | 68 | 1014.8 |
| 20260504100154 | 50 | 208 | 7.0 | 9.0 | 0.00 | 0.00 | 0.00 | 74 | 1014.4 |
| 20260504090116 | 51 | 266 | 2.0 | 7.0 | 0.00 | 0.00 | 0.00 | 63 | 1014.1 |
| 20260504081547 | 51 | 250 | 3.0 | 6.0 | 0.00 | 0.00 | 0.00 | 67 | 1013.9 |
| 20260504081042 | 51 | 251 | 4.0 | 6.0 | 0.00 | 0.00 | 0.00 | 66 | 1014.1 |
| 20260504080539 | 51 | 229 | 7.0 | 8.0 | 0.00 | 0.00 | 0.00 | 66 | 1014.0 |
| 20260504050352 | 51 | 219 | 1.0 | 5.0 | 0.00 | 0.00 | 0.00 | 73 | 1013.2 |
| 20260504045849 | 51 | 218 | 4.0 | 9.0 | 0.00 | 0.00 | 0.00 | 73 | 1013.1 |
| 20260504045344 | 51 | 234 | 5.0 | 6.0 | 0.00 | 0.00 | 0.00 | 72 | 1013.2 |
| 20260504044841 | 51 | 212 | 4.0 | 7.0 | 0.00 | 0.00 | 0.00 | 71 | 1013.3 |
| 20260504044339 | 51 | 220 | 6.0 | 7.0 | 0.00 | 0.00 | 0.00 | 73 | 1013.2 |
| 20260504043836 | 51 | 225 | 6.0 | 8.0 | 0.00 | 0.00 | 0.00 | 73 | 1013.1 |
| 20260504043332 | 52 | 216 | 7.0 | 7.0 | 0.00 | 0.00 | 0.00 | 72 | 1013.2 |
| 20260504042830 | 52 | 220 | 5.0 | 5.0 | 0.00 | 0.00 | 0.00 | 66 | 1013.1 |
| 20260504042326 | 52 | 224 | 5.0 | 6.0 | 0.00 | 0.00 | 0.00 | 65 | 1013.1 |
| 20260504041823 | 53 | 226 | 4.0 | 8.0 | 0.00 | 0.00 | 0.00 | 62 | 1013.0 |
| 20260504041319 | 53 | 238 | 3.0 | 8.0 | 0.00 | 0.00 | 0.00 | 62 | 1012.8 |
| 20260504040815 | 52 | 227 | 6.0 | 9.0 | 0.00 | 0.00 | 0.00 | 66 | 1013.0 |
| 20260504040313 | 52 | 222 | 5.0 | 6.0 | 0.00 | 0.00 | 0.00 | 69 | 1013.0 |
| 20260504035809 | 52 | 247 | 4.0 | 8.0 | 0.00 | 0.00 | 0.00 | 70 | 1012.8 |
| 20260504035306 | 52 | 223 | 5.0 | 8.0 | 0.00 | 0.00 | 0.00 | 70 | 1012.8 |
| 20260504034803 | 52 | 230 | 2.0 | 5.0 | 0.00 | 0.00 | 0.00 | 69 | 1012.7 |
| 20260504034301 | 52 | 260 | 3.0 | 7.0 | 0.00 | 0.00 | 0.00 | 68 | 1012.8 |
| 20260504033758 | 52 | 230 | 5.0 | 7.0 | 0.00 | 0.00 | 0.00 | 67 | 1012.8 |
| 20260504033255 | 52 | 218 | 4.0 | 11.0 | 0.00 | 0.00 | 0.00 | 66 | 1012.8 |
| 20260504032752 | 52 | 231 | 5.0 | 9.0 | 0.00 | 0.00 | 0.00 | 69 | 1012.8 |
| 20260504032249 | 53 | 194 | 5.0 | 8.0 | 0.00 | 0.00 | 0.00 | 71 | 1012.7 |
| 20260504031746 | 53 | 235 | 3.0 | 5.0 | 0.00 | 0.00 | 0.00 | 62 | 1012.6 |
| 20260504031243 | 53 | 229 | 4.0 | 9.0 | 0.00 | 0.00 | 0.00 | 60 | 1012.7 |
| 20260504030739 | 53 | 249 | 4.0 | 6.0 | 0.00 | 0.00 | 0.00 | 59 | 1012.7 |
| 20260504030237 | 53 | 249 | 5.0 | 6.0 | 0.00 | 0.00 | 0.00 | 59 | 1012.8 |
| 20260504025733 | 53 | 239 | 2.0 | 5.0 | 0.00 | 0.00 | 0.00 | 61 | 1012.8 |
| 20260504025230 | 54 | 233 | 5.0 | 8.0 | 0.00 | 0.00 | 0.00 | 59 | 1012.9 |
| 20260504024727 | 54 | 245 | 4.0 | 9.0 | 0.00 | 0.00 | 0.00 | 59 | 1012.8 |
| 20260504024223 | 54 | 246 | 3.0 | 10.0 | 0.00 | 0.00 | 0.00 | 61 | 1013.1 |
| 20260504023720 | 53 | 246 | 4.0 | 8.0 | 0.00 | 0.00 | 0.00 | 63 | 1012.7 |
| 20260504023216 | 53 | 213 | 6.0 | 7.0 | 0.00 | 0.00 | 0.00 | 64 | 1012.7 |
| 20260504022712 | 54 | 235 | 5.0 | 9.0 | 0.00 | 0.00 | 0.00 | 68 | 1012.7 |
| 20260504022208 | 54 | 222 | 6.0 | 6.0 | 0.00 | 0.00 | 0.00 | 64 | 1012.7 |
| 20260504021706 | 54 | 219 | 4.0 | 5.0 | 0.00 | 0.00 | 0.00 | 61 | 1012.9 |
| 20260504021203 | 54 | 240 | 3.0 | 8.0 | 0.00 | 0.00 | 0.00 | 60 | 1012.8 |
| 20260504020700 | 54 | 230 | 5.0 | 7.0 | 0.00 | 0.00 | 0.00 | 61 | 1012.7 |
| 20260504020155 | 54 | 248 | 4.0 | 5.0 | 0.00 | 0.00 | 0.00 | 63 | 1012.6 |
| 20260504015652 | 54 | 229 | 6.0 | 7.0 | 0.00 | 0.00 | 0.00 | 64 | 1012.6 |
| 20260504015149 | 54 | 228 | 3.0 | 6.0 | 0.00 | 0.00 | 0.00 | 63 | 1012.6 |
| 20260504014644 | 54 | 230 | 4.0 | 5.0 | 0.00 | 0.00 | 0.00 | 61 | 1012.7 |
| 20260504014142 | 54 | 237 | 4.0 | 5.0 | 0.00 | 0.00 | 0.00 | 59 | 1012.6 |
| 20260504013639 | 54 | 228 | 2.0 | 6.0 | 0.00 | 0.00 | 0.00 | 57 | 1012.5 |
| 20260504013136 | 54 | 237 | 3.0 | 5.0 | 0.00 | 0.00 | 0.00 | 57 | 1012.5 |
| 20260504012633 | 54 | 210 | 3.0 | 5.0 | 0.00 | 0.00 | 0.00 | 59 | 1012.2 |
| 20260504012131 | 54 | 232 | 3.0 | 4.0 | 0.00 | 0.00 | 0.00 | 57 | 1012.5 |
| 20260504011628 | 55 | 210 | 3.0 | 5.0 | 0.00 | 0.00 | 0.00 | 54 | 1012.4 |
| 20260504011124 | 55 | 239 | 3.0 | 5.0 | 0.00 | 0.00 | 0.00 | 53 | 1012.3 |
| 20260504010620 | 55 | 228 | 2.0 | 5.0 | 0.00 | 0.00 | 0.00 | 50 | 1012.1 |
| 20260504010116 | 55 | 222 | 3.0 | 5.0 | 0.00 | 0.00 | 0.00 | 50 | 1011.9 |
| 20260504005613 | 55 | 213 | 7.0 | 9.0 | 0.00 | 0.00 | 0.00 | 46 | 1011.9 |
| 20260504005110 | 56 | 216 | 2.0 | 3.0 | 0.00 | 0.00 | 0.00 | 38 | 1011.9 |
| 20260504004608 | 56 | 236 | 1.0 | 2.0 | 0.00 | 0.00 | 0.00 | 38 | 1011.8 |
| 20260504004105 | 56 | 233 | 0.0 | 2.0 | 0.00 | 0.00 | 0.00 | 37 | 1011.6 |
| 20260504003601 | 56 | 244 | 2.0 | 2.0 | 0.00 | 0.00 | 0.00 | 36 | 1011.6 |
| 20260504003058 | 57 | 261 | 2.0 | 4.0 | 0.00 | 0.00 | 0.00 | 35 | 1011.7 |
| 20260504002555 | 57 | 230 | 2.0 | 2.0 | 0.00 | 0.00 | 0.00 | 35 | 1011.7 |
| 20260504002053 | 57 | 264 | 3.0 | 3.0 | 0.00 | 0.00 | 0.00 | 35 | 1011.4 |
| 20260504001550 | 57 | 270 | 2.0 | 3.0 | 0.00 | 0.00 | 0.00 | 34 | 1011.4 |
| 20260504001046 | 57 | 274 | 2.0 | 4.0 | 0.00 | 0.00 | 0.00 | 34 | 1011.4 |
| 20260504000543 | 58 | 246 | 3.0 | 4.0 | 0.00 | 0.00 | 0.00 | 34 | 1011.2 |
| 20260504000041 | 58 | 291 | 2.0 | 5.0 | 0.00 | 0.00 | 0.00 | 33 | 1011.4 |
| 20260503235539 | 58 | 272 | 2.0 | 6.0 | 0.00 | 0.00 | 0.00 | 33 | 1011.1 |
| 20260503235035 | 58 | 290 | 5.0 | 10.0 | 0.00 | 0.00 | 0.00 | 32 | 1011.3 |
| 20260503234533 | 58 | 280 | 4.0 | 6.0 | 0.00 | 0.00 | 0.00 | 32 | 1011.0 |
| 20260503234031 | 58 | 305 | 3.0 | 5.0 | 0.00 | 0.00 | 0.00 | 32 | 1011.0 |
| 20260503233527 | 59 | 346 | 4.0 | 12.0 | 0.00 | 0.00 | 0.00 | 31 | 1011.1 |
| 20260503233023 | 59 | 313 | 3.0 | 11.0 | 0.00 | 0.00 | 0.00 | 31 | 1010.8 |
| 20260503232520 | 60 | 322 | 2.0 | 9.0 | 0.00 | 0.00 | 0.00 | 31 | 1010.7 |
| 20260503232018 | 60 | 297 | 2.0 | 9.0 | 0.00 | 0.00 | 0.00 | 30 | 1010.8 |
| 20260503231516 | 60 | 304 | 3.0 | 9.0 | 0.00 | 0.00 | 0.00 | 30 | 1010.7 |
| 20260503231012 | 60 | 337 | 9.0 | 13.0 | 0.00 | 0.00 | 0.00 | 30 | 1010.7 |
| 20260503230509 | 60 | 289 | 7.0 | 16.0 | 0.00 | 0.00 | 0.00 | 29 | 1010.6 |
| 20260503230006 | 60 | 269 | 5.0 | 9.0 | 0.00 | 0.00 | 0.00 | 30 | 1010.7 |
| 20260503225503 | 60 | 310 | 7.0 | 15.0 | 0.00 | 0.00 | 0.00 | 29 | 1010.8 |
| 20260503224958 | 60 | 302 | 9.0 | 18.0 | 0.00 | 0.00 | 0.00 | 29 | 1010.6 |
| 20260503224455 | 60 | 290 | 8.0 | 17.0 | 0.00 | 0.00 | 0.00 | 29 | 1010.6 |
| 20260503223953 | 60 | 300 | 9.0 | 17.0 | 0.00 | 0.00 | 0.00 | 29 | 1010.6 |
| 20260503223451 | 60 | 302 | 6.0 | 20.0 | 0.00 | 0.00 | 0.00 | 29 | 1010.7 |
| 20260503222946 | 60 | 276 | 14.0 | 20.0 | 0.00 | 0.00 | 0.00 | 29 | 1010.5 |
| 20260503222445 | 60 | 301 | 13.0 | 16.0 | 0.00 | 0.00 | 0.00 | 29 | 1010.5 |
| 20260503221943 | 60 | 312 | 8.0 | 19.0 | 0.00 | 0.00 | 0.00 | 29 | 1010.6 |
| 20260503221441 | 60 | 293 | 13.0 | 14.0 | 0.00 | 0.00 | 0.00 | 29 | 1010.6 |
| 20260503220937 | 60 | 318 | 6.0 | 14.0 | 0.00 | 0.00 | 0.00 | 30 | 1010.4 |
| 20260503220433 | 61 | 274 | 13.0 | 14.0 | 0.00 | 0.00 | 0.00 | 30 | 1010.5 |
| 20260503215931 | 61 | 345 | 5.0 | 11.0 | 0.00 | 0.00 | 0.00 | 30 | 1010.1 |
| 20260503215428 | 61 | 278 | 14.0 | 18.0 | 0.00 | 0.00 | 0.00 | 29 | 1010.6 |
| 20260503214925 | 61 | 285 | 14.0 | 24.0 | 0.00 | 0.00 | 0.00 | 30 | 1010.4 |
| 20260503214423 | 60 | 309 | 4.0 | 20.0 | 0.00 | 0.00 | 0.00 | 30 | 1010.3 |
| 20260503213920 | 60 | 274 | 13.0 | 24.0 | 0.00 | 0.00 | 0.00 | 30 | 1010.4 |
| 20260503213418 | 60 | 304 | 12.0 | 23.0 | 0.00 | 0.00 | 0.00 | 30 | 1010.2 |
| 20260503212914 | 61 | 308 | 10.0 | 13.0 | 0.00 | 0.00 | 0.00 | 30 | 1010.2 |
| 20260503212412 | 60 | 331 | 10.0 | 21.0 | 0.00 | 0.00 | 0.00 | 31 | 1010.4 |
| 20260503211909 | 61 | 307 | 10.0 | 15.0 | 0.00 | 0.00 | 0.00 | 30 | 1010.4 |
| 20260503211406 | 61 | 324 | 3.0 | 10.0 | 0.00 | 0.00 | 0.00 | 31 | 1010.1 |
| 20260503210901 | 60 | 322 | 8.0 | 21.0 | 0.00 | 0.00 | 0.00 | 30 | 1010.3 |
| 20260503210359 | 61 | 276 | 10.0 | 11.0 | 0.00 | 0.00 | 0.00 | 30 | 1010.0 |
| 20260503205853 | 62 | 296 | 8.0 | 9.0 | 0.00 | 0.00 | 0.00 | 31 | 1010.2 |
| 20260503205350 | 60 | 334 | 5.0 | 18.0 | 0.00 | 0.00 | 0.00 | 31 | 1010.1 |
| 20260503204846 | 61 | 266 | 9.0 | 18.0 | 0.00 | 0.00 | 0.00 | 31 | 1010.2 |
| 20260503204344 | 60 | 319 | 3.0 | 15.0 | 0.00 | 0.00 | 0.00 | 31 | 1010.3 |
| 20260503203841 | 60 | 330 | 16.0 | 29.0 | 0.00 | 0.00 | 0.00 | 31 | 1010.3 |
| 20260503203338 | 60 | 289 | 8.0 | 17.0 | 0.00 | 0.00 | 0.00 | 32 | 1010.1 |
| 20260503202835 | 59 | 310 | 14.0 | 20.0 | 0.00 | 0.00 | 0.00 | 32 | 1010.0 |
| 20260503202333 | 59 | 292 | 10.0 | 21.0 | 0.00 | 0.00 | 0.00 | 32 | 1010.0 |
| 20260503201832 | 59 | 315 | 17.0 | 21.0 | 0.00 | 0.00 | 0.00 | 32 | 1010.1 |
| 20260503201328 | 60 | 338 | 8.0 | 18.0 | 0.00 | 0.00 | 0.00 | 32 | 1010.0 |
| 20260503200826 | 60 | 244 | 3.0 | 16.0 | 0.00 | 0.00 | 0.00 | 32 | 1010.0 |
| 20260503200321 | 60 | 274 | 15.0 | 22.0 | 0.00 | 0.00 | 0.00 | 32 | 1010.3 |
| 20260503195819 | 60 | 278 | 16.0 | 19.0 | 0.00 | 0.00 | 0.00 | 32 | 1010.3 |
| 20260503195315 | 60 | 331 | 6.0 | 13.0 | 0.00 | 0.00 | 0.00 | 33 | 1010.2 |
| 20260503194813 | 59 | 325 | 9.0 | 22.0 | 0.00 | 0.00 | 0.00 | 35 | 1010.4 |
| 20260503194308 | 57 | 298 | 12.0 | 19.0 | 0.00 | 0.00 | 0.00 | 34 | 1010.5 |
| 20260503193805 | 60 | 293 | 12.0 | 13.0 | 0.00 | 0.00 | 0.00 | 33 | 1010.4 |
| 20260503193301 | 59 | 285 | 2.0 | 10.0 | 0.00 | 0.00 | 0.00 | 35 | 1010.6 |